Location: Tamazert
(32.6352°N, 5.2072°W)
Time: 05:17:05
(UTC+00:00)

Lacrosse 5 - Pass Details

Date: 22 May 2022
Orbit: 714 x 724 km, 57.0° (Epoch: 09 March)

Event Time Altitude Azimuth Distance (km) Brightness Sun altitude
Exits shadow 02:44:52 83° 345° (NNW) 732 1.8 -26.4°
Drops below altitude 10° 02:49:51 10° 37° (NE) 2,212 5.4 -25.7°
Sets 02:52:14 0° 38° (NE) 3,134 6.6 -25.4°
